Location: ???????
(55.4362°N, 38.1183°E)
Time: 00:32:25
(UTC+00:00)

METEOR M2 - Pass Details

Date: 03 December 2021
Orbit: 818 x 827 km, 98.4° (Epoch: 28 January)

Event Time Altitude Azimuth Distance (km) Brightness Sun altitude
Rises 03:09:19 0° 27° (NNE) 3,372 ? -19.2°
Reaches altitude 10° 03:13:25 10° 58° (ENE) 2,429 ? -18.6°
Maximum altitude 03:15:27 12° 81° (E) 2,281 ? -18.3°
Drops below altitude 10° 03:17:28 10° 103° (ESE) 2,421 ? -18.0°
Sets 03:21:31 0° 134° (SE) 3,345 ? -17.5°
